TimeMST,TemperatureF,Dew PointF,Humidity,Sea Level PressureIn,VisibilityMPH,Wind Direction,Wind SpeedMPH,Gust SpeedMPH,PrecipitationIn,Events,Conditions,WindDirDegrees,DateUTC
12:10 AM,32.0,-9999,N/A,30.01,10.0,SSW,3.5,-,N/A,,Overcast,210,2012-11-21 07:10:00
12:30 AM,32.0,-9999,N/A,30.01,10.0,Calm,Calm,-,N/A,,Overcast,0,2012-11-21 07:30:00
12:50 AM,32.0,-9999,N/A,30.00,10.0,SE,5.8,-,N/A,,Overcast,130,2012-11-21 07:50:00
1:10 AM,32.0,-9999,N/A,29.99,10.0,East,3.5,-,N/A,,Mostly Cloudy,80,2012-11-21 08:10:00
1:30 AM,32.0,-9999,N/A,29.98,10.0,Calm,Calm,-,N/A,,Mostly Cloudy,0,2012-11-21 08:30:00
1:50 AM,35.6,-9999,N/A,29.97,10.0,SSE,3.5,-,N/A,,Overcast,160,2012-11-21 08:50:00
2:10 AM,32.0,-9999,N/A,29.96,10.0,South,4.6,-,N/A,,Overcast,190,2012-11-21 09:10:00
2:30 AM,33.8,-9999,N/A,29.95,10.0,SSW,11.5,-,N/A,,Overcast,200,2012-11-21 09:30:00
2:50 AM,35.6,-9999,N/A,29.95,10.0,SW,11.5,-,N/A,,Overcast,220,2012-11-21 09:50:00
3:10 AM,37.4,-9999,N/A,29.94,10.0,SW,10.4,-,N/A,,Overcast,220,2012-11-21 10:10:00
3:30 AM,37.4,-9999,N/A,29.93,10.0,SW,8.1,-,N/A,,Overcast,220,2012-11-21 10:30:00
3:50 AM,35.6,-9999,N/A,29.93,10.0,SW,6.9,-,N/A,,Overcast,230,2012-11-21 10:50:00
4:10 AM,35.6,-9999,N/A,29.92,10.0,SW,6.9,-,N/A,,Overcast,230,2012-11-21 11:10:00
4:30 AM,35.6,-9999,N/A,29.92,10.0,WSW,6.9,-,N/A,,Overcast,240,2012-11-21 11:30:00
4:50 AM,35.6,-9999,N/A,29.91,10.0,WSW,5.8,-,N/A,,Overcast,240,2012-11-21 11:50:00
5:10 AM,35.6,-9999,N/A,29.92,10.0,SW,6.9,-,N/A,,Overcast,230,2012-11-21 12:10:00
5:30 AM,37.4,-9999,N/A,29.92,10.0,SW,6.9,-,N/A,,Mostly Cloudy,220,2012-11-21 12:30:00
5:50 AM,35.6,-9999,N/A,29.92,10.0,SSW,6.9,-,N/A,,Mostly Cloudy,200,2012-11-21 12:50:00
6:10 AM,35.6,-9999,N/A,29.92,10.0,SW,6.9,-,N/A,Rain,Light Rain,220,2012-11-21 13:10:00
6:30 AM,35.6,-9999,N/A,29.92,3.0,SW,8.1,17.3,N/A,Snow,Light Snow,220,2012-11-21 13:30:00
6:50 AM,33.8,-9999,N/A,29.91,8.0,SSW,10.4,-,N/A,Rain,Light Rain,210,2012-11-21 13:50:00
7:10 AM,33.8,-9999,N/A,29.91,5.0,South,10.4,-,N/A,,Scattered Clouds,190,2012-11-21 14:10:00
7:30 AM,33.8,-9999,N/A,29.90,5.0,South,11.5,-,N/A,Rain,Light Rain,180,2012-11-21 14:30:00
7:50 AM,33.8,-9999,N/A,29.91,4.0,South,10.4,-,N/A,Snow,Light Snow,180,2012-11-21 14:50:00
8:10 AM,33.8,-9999,N/A,29.90,6.0,SSW,9.2,-,N/A,Rain,Light Rain,210,2012-11-21 15:10:00
8:30 AM,35.6,-9999,N/A,29.89,10.0,South,4.6,-,N/A,Rain,Light Rain,190,2012-11-21 15:30:00
8:50 AM,35.6,-9999,N/A,29.90,10.0,West,4.6,-,N/A,,Overcast,280,2012-11-21 15:50:00
9:10 AM,35.6,-9999,N/A,29.89,10.0,WSW,4.6,-,N/A,,Overcast,250,2012-11-21 16:10:00
9:30 AM,35.6,-9999,N/A,29.90,10.0,WSW,8.1,-,N/A,,Overcast,250,2012-11-21 16:30:00
9:50 AM,35.6,-9999,N/A,29.89,10.0,WSW,10.4,-,N/A,,Overcast,240,2012-11-21 16:50:00
10:10 AM,35.6,-9999,N/A,29.89,9.0,WSW,10.4,-,N/A,,Mostly Cloudy,240,2012-11-21 17:10:00
10:30 AM,35.6,-9999,N/A,29.89,3.0,WSW,5.8,-,N/A,Snow,Light Snow,240,2012-11-21 17:30:00
10:50 AM,35.6,-9999,N/A,29.89,10.0,WSW,9.2,-,N/A,,Mostly Cloudy,240,2012-11-21 17:50:00
11:10 AM,37.4,-9999,N/A,29.88,10.0,SW,10.4,-,N/A,,Overcast,230,2012-11-21 18:10:00
11:30 AM,37.4,-9999,N/A,29.87,10.0,SSW,12.7,20.7,N/A,,Overcast,210,2012-11-21 18:30:00
11:50 AM,37.4,-9999,N/A,29.85,10.0,SW,20.7,33.4,N/A,,Overcast,220,2012-11-21 18:50:00
12:10 PM,39.2,-9999,N/A,29.85,10.0,SW,16.1,29.9,N/A,,Overcast,220,2012-11-21 19:10:00
12:30 PM,39.2,-9999,N/A,29.84,10.0,SSW,15.0,32.2,N/A,,Overcast,210,2012-11-21 19:30:00
12:50 PM,39.2,-9999,N/A,29.83,10.0,SSW,17.3,26.5,N/A,,Overcast,210,2012-11-21 19:50:00
1:10 PM,39.2,-9999,N/A,29.82,10.0,SW,19.6,31.1,N/A,,Overcast,220,2012-11-21 20:10:00
1:30 PM,39.2,-9999,N/A,29.83,10.0,SW,20.7,26.5,N/A,,Overcast,220,2012-11-21 20:30:00
1:50 PM,39.2,-9999,N/A,29.80,10.0,SSW,27.6,38.0,N/A,,Overcast,210,2012-11-21 20:50:00
2:10 PM,39.2,-9999,N/A,29.80,10.0,SW,19.6,34.5,N/A,,Mostly Cloudy,220,2012-11-21 21:10:00
2:30 PM,39.2,-9999,N/A,29.80,10.0,SSW,23.0,40.3,N/A,,Mostly Cloudy,210,2012-11-21 21:30:00
2:50 PM,39.2,-9999,N/A,29.79,10.0,SSW,33.4,44.9,N/A,,Mostly Cloudy,210,2012-11-21 21:50:00
3:10 PM,37.4,-9999,N/A,29.80,10.0,SSW,29.9,36.8,N/A,,Mostly Cloudy,200,2012-11-21 22:10:00
3:30 PM,37.4,-9999,N/A,29.81,10.0,SW,21.9,34.5,N/A,,Overcast,220,2012-11-21 22:30:00
3:50 PM,37.4,-9999,N/A,29.82,10.0,SSW,26.5,35.7,N/A,,Overcast,210,2012-11-21 22:50:00
4:10 PM,37.4,-9999,N/A,29.84,10.0,SW,21.9,29.9,N/A,,Overcast,220,2012-11-21 23:10:00
4:30 PM,37.4,-9999,N/A,29.85,10.0,SW,17.3,25.3,N/A,,Overcast,220,2012-11-21 23:30:00
4:50 PM,37.4,-9999,N/A,29.85,10.0,SW,16.1,31.1,N/A,Rain,Light Rain,220,2012-11-21 23:50:00
5:10 PM,35.6,-9999,N/A,29.85,5.0,SW,11.5,24.2,N/A,Rain,Light Rain,230,2012-11-22 00:10:00
5:30 PM,35.6,-9999,N/A,29.85,10.0,SW,15.0,24.2,N/A,,Mostly Cloudy,220,2012-11-22 00:30:00
5:50 PM,35.6,-9999,N/A,29.86,10.0,WSW,6.9,-,N/A,,Overcast,240,2012-11-22 00:50:00
6:10 PM,33.8,-9999,N/A,29.87,4.0,SW,19.6,24.2,N/A,Snow,Light Snow,220,2012-11-22 01:10:00
6:30 PM,32.0,-9999,N/A,29.87,9.0,WSW,11.5,19.6,N/A,Snow,Light Snow,240,2012-11-22 01:30:00
6:50 PM,33.8,-9999,N/A,29.88,7.0,SW,16.1,31.1,N/A,Snow,Light Snow,220,2012-11-22 01:50:00
7:10 PM,33.8,-9999,N/A,29.87,5.0,SW,15.0,24.2,N/A,Rain,Light Rain,220,2012-11-22 02:10:00
7:30 PM,32.0,-9999,N/A,29.89,1.2,WSW,13.8,27.6,N/A,Snow,Light Snow,240,2012-11-22 02:30:00
7:50 PM,30.2,-9999,N/A,29.92,0.5,NW,5.8,17.3,N/A,Snow,Snow,310,2012-11-22 02:50:00
8:10 PM,28.4,-9999,N/A,29.93,2.5,NW,6.9,-,N/A,Snow,Light Snow,320,2012-11-22 03:10:00
8:30 PM,28.4,-9999,N/A,29.94,6.0,WNW,5.8,16.1,N/A,Snow,Light Snow,300,2012-11-22 03:30:00
8:50 PM,28.4,-9999,N/A,29.95,2.0,West,3.5,-,N/A,Snow,Light Snow,260,2012-11-22 03:50:00
9:10 PM,28.4,-9999,N/A,29.95,10.0,Calm,Calm,-,N/A,,Mostly Cloudy,0,2012-11-22 04:10:00
9:30 PM,26.6,-9999,N/A,29.95,10.0,South,3.5,-,N/A,,Partly Cloudy,190,2012-11-22 04:30:00
9:50 PM,26.6,-9999,N/A,29.96,10.0,SW,4.6,-,N/A,,Partly Cloudy,230,2012-11-22 04:50:00
10:10 PM,26.6,-9999,N/A,29.98,10.0,WNW,5.8,-,N/A,,Partly Cloudy,290,2012-11-22 05:10:00
10:30 PM,26.6,-9999,N/A,30.00,10.0,NW,5.8,-,N/A,,Scattered Clouds,310,2012-11-22 05:30:00
10:50 PM,24.8,-9999,N/A,30.01,10.0,WNW,3.5,-,N/A,,Partly Cloudy,300,2012-11-22 05:50:00
11:10 PM,24.8,-9999,N/A,30.03,10.0,West,3.5,-,N/A,,Partly Cloudy,270,2012-11-22 06:10:00
11:30 PM,24.8,-9999,N/A,30.04,10.0,West,6.9,-,N/A,,Mostly Cloudy,280,2012-11-22 06:30:00
11:50 PM,24.8,-9999,N/A,30.04,10.0,West,5.8,-,N/A,,Clear,260,2012-11-22 06:50:00